Location: Montreal
(45.5087°N, 73.5540°W)
Time: 10:09:55
(UTC-04:00)

BlueWalker 3 - Visible Passes

Search period start: 10 May 2026 00:00
Search period end: 20 May 2026 00:00
Orbit: 448 x 458 km, 53.2° (Epoch: 10 May)

Date Brightness Start Highest point End Pass type
(mag) Time Alt. Az. Time Alt. Az. Time Alt. Az.
10 May 1.8 03:20:59 47° W 03:21:49 69° NNW 03:25:22 10° NE visible
10 May 3.6 04:56:41 10° WNW 04:59:41 25° N 05:02:42 10° NE visible
11 May 1.7 02:45:18 76° NE 02:45:18 76° NE 02:48:37 10° ENE visible
11 May 3.5 04:19:43 10° WNW 04:22:49 27° NNW 04:25:55 10° NE visible
12 May 3.0 02:09:34 36° ENE 02:09:34 36° ENE 02:11:50 10° ENE visible
12 May 3.3 03:43:12 12° WNW 03:45:56 30° NNW 03:49:08 10° NE visible
13 May 4.0 01:33:48 20° ENE 01:33:48 20° ENE 01:35:01 10° ENE visible
13 May 3.1 03:07:25 22° WNW 03:09:05 34° NNW 03:12:22 10° NE visible
13 May 4.0 04:44:18 10° NW 04:47:12 23° N 04:50:05 10° NE visible
14 May 4.6 00:57:59 11° ENE 00:57:59 11° ENE 00:58:10 10° ENE visible
14 May 2.8 02:31:35 36° NW 02:32:14 39° NNW 02:35:36 10° NE visible
14 May 4.0 04:07:24 10° NW 04:10:17 23° N 04:13:11 10° NE visible
15 May 2.7 01:55:42 45° N 01:55:42 45° N 01:58:50 10° NE visible
15 May 4.0 03:30:28 10° WNW 03:33:23 23° N 03:36:17 10° NE visible
16 May 3.2 01:19:45 36° NE 01:19:45 36° NE 01:22:03 10° NE visible
16 May 3.9 02:53:30 10° WNW 02:56:27 24° N 02:59:26 10° NE visible
16 May 3.8 04:31:31 10° NW 04:34:37 27° NNE 04:37:43 10° ENE visible
17 May 3.7 00:43:41 24° NE 00:43:41 24° NE 00:45:15 10° NE visible
17 May 3.8 02:17:16 14° WNW 02:19:32 26° N 02:22:34 10° NE visible
17 May 4.0 03:54:41 10° NW 03:57:42 25° N 04:00:44 10° ENE visible
18 May 4.0 00:07:28 18° ENE 00:07:28 18° ENE 00:08:27 10° ENE visible
18 May 3.7 01:41:02 20° NW 01:42:37 28° NNW 01:45:44 10° NE visible
18 May 4.1 03:17:49 10° NW 03:20:46 24° N 03:23:44 10° ENE visible
18 May 4.1 23:30:58 15° ENE 23:30:58 15° ENE 23:31:37 10° ENE visible
19 May 3.5 01:04:31 25° NW 01:05:42 31° NNW 01:08:54 10° NE visible
19 May 4.2 02:40:56 10° NW 02:43:50 23° N 02:46:44 10° ENE visible
19 May 2.9 04:18:24 10° NW 04:21:50 45° NNE 04:25:16 10° E visible
19 May 3.8 22:53:48 17° ENE 22:53:48 17° ENE 22:54:44 10° ENE visible
